Wind_Speed
47 48 49 49 50 50 50 50 50 51 51 52 52 52 52 52 52 52 53 53 53 52 53 53 53 54 55 55 55 56 56 56 56 55 55 55 55 56 56 55 55 56 56
46 48 49 49 50 51 51 52 52 52 52 52 52 53 54 54 54 53 53 53 54 54 54 54 55 55 56 55 55 56 57 57 57 57 56 56 57 57 57 56 56 57 56
46 46 47 49 50 50 50 51 51 52 52 52 52 53 54 54 54 55 55 55 55 54 54 55 55 56 56 56 56 57 58 58 59 59 58 58 57 58 58 57 57 57 57
45 46 47 49 49 49 50 50 50 51 53 53 53 53 54 54 54 54 54 55 55 55 56 56 56 57 57 57 57 57 58 59 59 59 58 58 58 58 58 58 57 58 58
45 46 47 48 48 48 49 49 50 51 53 53 53 54 54 54 54 55 55 55 55 55 56 57 57 58 58 58 58 59 59 59 59 59 58 58 58 58 58 58 59 59 59
44 45 46 47 48 48 49 49 50 50 51 52 51 52 53 54 55 55 55 56 56 56 56 57 58 58 58 59 60 59 59 59 59 59 59 58 58 59 59 59 60 60 59
43 44 45 45 46 47 48 48 48 49 49 50 51 51 51 52 53 53 54 56 57 58 58 58 58 58 59 59 59 60 60 60 60 60 59 58 58 59 60 60 61 61 61
42 43 43 44 45 46 46 46 47 48 48 49 49 49 49 49 50 51 52 52 54 55 56 57 57 58 59 59 60 60 60 60 60 60 59 59 59 60 60 60 61 61 61
41 41 41 42 43 44 44 45 45 46 46 47 47 48 47 47 49 50 50 51 51 51 52 53 54 55 56 57 57 57 58 59 60 60 60 60 61 61 61 61 61 61 60
41 41 41 41 42 43 43 43 44 44 45 45 45 46 46 45 46 47 48 49 49 49 49 49 50 51 53 54 55 56 57 58 59 60 60 60 60 60 60 61 60 60 60
39 40 41 40 41 41 42 43 44 44 45 45 45 45 46 46 46 46 46 46 46 46 46 47 47 48 50 51 53 54 55 56 58 59 59 59 58 58 58 57 57 57 57
37 37 39 39 39 40 40 41 42 43 44 44 44 44 45 45 44 44 44 45 45 46 46 47 47 48 48 50 51 52 54 55 56 57 57 56 56 56 56 55 54 54 54
35 36 36 37 38 38 39 39 40 41 42 43 42 42 42 43 44 43 43 44 45 45 46 47 48 48 49 49 50 51 53 53 53 53 54 54 55 55 55 55 55 54 54
35 35 35 36 36 37 38 38 39 39 39 41 41 41 42 43 44 44 44 45 45 45 45 46 47 48 48 49 50 50 51 51 51 52 53 53 54 54 55 55 56 56 56
34 34 35 35 36 36 36 37 37 38 38 39 40 40 41 42 42 43 43 43 44 44 45 46 46 47 47 48 48 48 49 49 50 51 51 53 53 53 53 54 54 54 54
33 33 34 34 34 34 34 35 36 37 38 39 39 39 40 41 41 41 42 42 43 43 43 44 45 45 45 46 46 46 47 48 49 49 50 50 51 51 51 52 52 52 52
31 31 31 32 32 33 34 35 35 36 37 38 38 38 39 39 39 40 40 41 41 41 42 42 42 43 43 43 44 45 46 47 48 48 48 49 49 49 50 50 51 51 51
31 31 31 32 32 33 34 34 35 36 36 37 38 38 37 38 38 38 38 39 39 39 38 38 39 40 41 42 42 43 44 45 45 46 47 47 48 48 48 49 49 49 50
31 31 31 32 32 33 34 34 34 35 35 36 36 36 36 36 36 35 35 35 36 36 36 37 37 38 39 40 40 41 41 42 42 42 43 44 45 46 46 47 47 48 48
29 30 31 31 32 32 33 33 33 34 34 34 34 33 34 34 34 33 33 33 33 34 35 35 35 36 36 36 37 37 38 38 38 39 40 42 43 44 44 45 45 46 46
29 29 30 30 30 30 31 31 31 31 31 32 32 32 32 32 32 32 32 32 32 32 32 33 33 34 34 34 34 34 34 35 35 36 37 39 40 41 42 42 42 43 44
28 28 28 29 30 30 30 30 30 30 30 31 31 31 31 32 32 32 31 31 31 31 31 32 32 32 31 31 32 32 32 33 33 34 35 36 37 38 38 39 40 40 41
27 27 28 28 29 30 30 30 30 29 29 30 30 30 30 30 31 31 31 31 31 30 30 29 29 30 30 30 30 30 30 30 31 32 32 33 34 34 35 36 36 37 38
26 26 27 27 28 28 28 28 28 28 28 28 28 29 28 28 28 28 29 29 29 29 29 29 29 28 29 29 28 29 29 29 29 29 30 31 31 32 33 34 35 35 36
26 26 26 26 26 25 25 26 26 26 27 27 27 27 27 27 27 27 28 27 27 28 28 29 28 28 28 27 27 27 27 28 28 28 28 29 29 29 30 31 31 32 33
25 25 25 25 24 24 24 24 24 24 25 25 25 26 26 26 26 26 26 26 26 26 26 26 26 26 26 26 26 26 26 26 26 27 27 27 27 27 28 28 29 29 30
Wind_Direction
260 258 258 258 258 259 259 259 259 259 259 258 258 258 258 258 258 259 259 259 260 260 260 260 260 260 259 258 258 258 258 258 259 259 259 260 261 262 263 263 264 265 265
261 259 258 259 259 259 260 260 260 259 258 257 258 258 259 259 259 259 259 260 260 260 260 260 260 260 260 260 259 259 259 259 259 260 260 260 261 261 262 263 264 264 264
262 261 260 260 260 260 261 262 261 259 258 258 259 259 259 259 260 260 260 260 259 259 259 259 260 260 260 260 260 260 260 260 260 261 261 261 261 261 262 262 263 264 264
263 263 261 260 260 261 261 261 261 259 258 259 260 260 261 261 261 260 260 260 259 258 259 260 261 261 260 260 261 261 261 261 261 262 262 262 262 262 262 263 264 264 265
264 264 263 262 261 261 261 261 260 260 259 260 261 261 261 261 261 261 261 261 260 260 260 261 261 261 261 261 261 261 261 261 261 262 262 262 262 262 263 264 264 265 265
265 264 264 263 261 261 262 261 261 261 261 260 261 262 261 261 262 263 262 261 261 261 261 262 261 261 260 260 260 260 261 261 262 262 262 262 262 262 263 264 265 265 266
266 264 264 263 262 262 262 262 261 261 261 261 262 263 262 262 262 263 263 262 262 261 261 262 262 261 260 260 259 259 260 260 261 261 262 262 262 263 263 264 265 266 266
266 265 265 264 264 263 263 262 261 260 260 261 261 262 263 262 263 263 264 263 262 262 262 262 262 261 260 260 259 259 259 260 260 260 261 262 263 264 264 265 265 266 266
267 266 265 265 265 264 264 263 262 262 261 262 263 261 262 263 264 264 264 263 263 263 263 263 263 262 261 260 260 260 260 259 260 261 261 262 263 264 264 264 265 266 266
267 267 266 266 266 265 264 263 263 263 262 263 263 262 263 264 264 264 265 264 264 264 264 264 264 263 262 262 261 261 261 260 261 262 262 263 263 264 265 265 265 265 266
268 267 267 268 267 266 264 264 263 263 263 263 263 263 263 264 265 265 265 265 265 265 265 265 265 265 264 263 263 262 262 262 262 262 262 262 262 263 264 265 265 266 266
270 269 268 268 268 267 266 265 264 264 264 264 264 264 265 264 265 265 265 265 265 266 266 266 266 266 265 265 264 264 264 263 262 262 261 261 261 262 263 264 265 266 267
271 270 269 269 269 268 268 267 266 266 265 265 265 265 265 265 265 266 266 267 267 266 266 266 266 266 266 266 266 266 265 264 263 262 261 261 261 262 263 264 265 266 267
273 272 271 271 270 269 268 268 268 268 266 265 265 266 266 267 266 267 268 269 269 267 267 267 267 267 267 266 266 266 266 265 264 263 262 262 262 263 264 264 265 265 266
274 274 273 272 271 270 269 269 269 268 268 267 267 268 268 269 269 269 269 269 270 270 269 268 268 268 268 267 266 266 265 264 264 263 263 263 263 263 263 264 265 265 266
275 274 273 272 271 271 270 269 269 269 269 269 269 270 270 271 271 271 272 272 271 271 271 270 270 269 268 267 267 266 266 265 265 265 264 264 263 263 263 263 264 265 265
277 275 273 272 272 271 270 270 270 270 270 270 271 271 273 273 273 273 273 273 273 273 273 272 270 269 269 268 268 268 268 267 266 265 264 264 263 263 263 264 264 265 266
278 277 275 274 273 273 273 273 272 272 272 272 272 273 274 274 274 274 273 274 274 274 273 272 271 270 270 270 270 270 269 269 268 266 265 264 264 264 265 265 266 266 266
279 277 276 275 275 276 275 274 273 273 272 272 272 273 273 274 274 274 274 273 274 274 273 273 273 273 273 272 272 271 271 270 269 268 266 265 265 265 266 267 267 267 267
279 278 277 276 276 277 277 276 276 274 273 273 273 273 272 273 273 274 275 275 275 274 274 274 274 275 275 275 274 273 272 271 270 269 268 267 267 267 267 268 268 267 267
280 280 279 279 278 278 278 278 277 275 274 274 274 273 272 272 272 273 273 274 275 275 274 275 275 275 276 275 275 274 273 271 271 270 270 270 269 269 269 269 268 268 268
282 282 281 280 280 279 280 280 279 277 276 276 275 274 273 273 273 273 273 273 273 274 275 276 276 276 276 276 276 275 274 272 272 272 272 271 271 270 270 269 269 270 270
285 285 284 283 282 281 280 279 278 277 277 276 275 275 274 274 274 273 272 273 273 274 275 276 277 277 276 276 276 276 275 274 273 272 272 273 272 272 272 272 272 271 271
288 288 288 287 285 284 282 279 278 277 276 276 275 275 274 275 275 275 274 273 273 273 274 275 276 276 276 276 276 276 275 274 274 273 273 274 274 274 274 274 273 272 271
289 290 290 289 288 286 284 282 280 278 277 276 275 274 275 275 275 275 275 275 274 274 274 275 274 275 275 275 275 275 274 274 274 274 275 275 277 277 276 276 275 273 271
291 290 290 290 289 288 287 285 283 281 279 277 276 276 275 274 274 275 275 274 274 274 275 275 274 274 275 275 276 276 275 274 275 275 276 277 278 279 279 278 277 275 273
Height
5595 5595 5596 5597 5597 5597 5598 5598 5598 5599 5599 5600 5602 5603 5604 5606 5607 5609 5610 5612 5614 5616 5618 5619 5621 5622 5623 5625 5627 5629 5631 5633 5635 5638 5639 5640 5641 5643 5643 5644 5645 5647 5648
5581 5582 5582 5583 5583 5584 5584 5585 5585 5585 5586 5587 5588 5589 5590 5591 5593 5595 5597 5598 5600 5602 5603 5605 5606 5607 5609 5610 5612 5613 5616 5617 5619 5622 5624 5625 5626 5627 5628 5629 5630 5631 5632
5568 5568 5569 5569 5570 5570 5571 5571 5571 5571 5572 5573 5574 5575 5576 5577 5579 5580 5582 5583 5585 5587 5588 5590 5591 5592 5594 5595 5596 5598 5600 5602 5604 5606 5608 5610 5611 5611 5612 5614 5615 5616 5616
5555 5555 5555 5556 5556 5557 5557 5557 5558 5558 5558 5559 5560 5561 5562 5563 5564 5566 5567 5568 5570 5571 5573 5574 5576 5577 5578 5580 5581 5582 5584 5586 5587 5589 5591 5593 5595 5596 5596 5598 5599 5600 5600
5542 5542 5542 5542 5543 5543 5543 5544 5544 5545 5545 5546 5546 5547 5548 5549 5550 5551 5552 5553 5555 5556 5557 5559 5560 5561 5562 5563 5565 5566 5568 5569 5571 5573 5575 5577 5578 5580 5580 5581 5582 5583 5584
5530 5530 5529 5529 5530 5530 5530 5531 5531 5531 5532 5532 5533 5533 5534 5535 5535 5536 5537 5538 5539 5540 5541 5543 5544 5545 5546 5547 5548 5550 5551 5553 5555 5556 5558 5560 5561 5562 5563 5564 5564 5566 5568
5517 5517 5517 5517 5517 5517 5517 5517 5517 5518 5518 5519 5519 5519 5520 5520 5520 5521 5521 5522 5523 5524 5525 5526 5527 5528 5529 5530 5531 5533 5534 5536 5538 5540 5541 5543 5544 5545 5546 5547 5547 5548 5549
5504 5504 5504 5504 5504 5504 5504 5504 5504 5504 5504 5505 5505 5505 5505 5505 5505 5505 5505 5506 5507 5507 5508 5509 5510 5511 5512 5513 5514 5516 5517 5519 5521 5523 5525 5526 5526 5527 5528 5529 5530 5530 5531
5492 5492 5492 5492 5491 5491 5491 5491 5491 5491 5491 5491 5491 5491 5491 5491 5491 5491 5491 5491 5492 5492 5492 5492 5493 5494 5495 5496 5497 5499 5500 5502 5503 5504 5506 5508 5509 5509 5510 5511 5512 5513 5514
5480 5480 5479 5479 5479 5478 5478 5478 5478 5478 5478 5478 5478 5478 5478 5478 5478 5477 5476 5476 5477 5477 5477 5477 5478 5478 5478 5479 5480 5482 5483 5485 5486 5487 5488 5490 5491 5492 5492 5493 5494 5495 5495
5468 5467 5467 5466 5466 5466 5466 5465 5465 5465 5465 5465 5465 5465 5465 5465 5464 5463 5463 5462 5463 5463 5463 5463 5463 5463 5463 5463 5464 5465 5467 5467 5468 5469 5471 5472 5473 5474 5475 5476 5476 5477 5478
5456 5455 5455 5454 5453 5453 5453 5452 5452 5452 5452 5452 5452 5452 5451 5451 5451 5450 5450 5449 5449 5449 5449 5449 5449 5448 5448 5448 5448 5449 5450 5450 5451 5452 5454 5455 5456 5457 5458 5459 5459 5460 5461
5444 5443 5443 5442 5441 5441 5440 5440 5439 5439 5439 5439 5439 5439 5439 5439 5438 5438 5437 5436 5436 5436 5435 5435 5434 5434 5433 5434 5434 5434 5434 5434 5435 5436 5437 5438 5440 5441 5441 5442 5443 5443 5444
5433 5432 5431 5430 5429 5429 5428 5428 5427 5427 5427 5427 5427 5427 5426 5426 5425 5425 5424 5423 5423 5422 5421 5421 5420 5419 5419 5419 5419 5418 5418 5419 5419 5420 5421 5422 5423 5424 5425 5425 5427 5427 5428
5421 5420 5420 5419 5418 5417 5416 5416 5416 5415 5415 5415 5415 5414 5414 5414 5413 5412 5411 5410 5409 5408 5407 5406 5406 5405 5405 5404 5404 5404 5403 5404 5404 5404 5405 5406 5406 5407 5408 5409 5410 5411 5411
5410 5409 5408 5407 5406 5405 5405 5405 5404 5404 5403 5403 5402 5402 5401 5401 5400 5399 5397 5396 5395 5394 5393 5393 5392 5391 5390 5390 5389 5389 5389 5389 5389 5389 5389 5390 5391 5392 5392 5393 5394 5394 5395
5400 5398 5397 5396 5395 5394 5394 5393 5393 5392 5391 5391 5390 5389 5389 5388 5387 5386 5384 5383 5382 5381 5380 5379 5378 5377 5376 5376 5375 5375 5374 5374 5374 5374 5375 5375 5376 5376 5377 5377 5378 5378 5379
5390 5388 5387 5386 5385 5384 5383 5382 5381 5381 5380 5379 5378 5377 5376 5375 5374 5373 5372 5371 5370 5369 5368 5366 5365 5364 5363 5362 5362 5361 5360 5360 5359 5359 5360 5360 5361 5361 5362 5362 5362 5362 5363
5380 5378 5377 5376 5374 5373 5372 5371 5370 5369 5368 5367 5366 5365 5364 5363 5362 5361 5359 5359 5358 5356 5355 5354 5353 5351 5350 5349 5348 5347 5347 5346 5346 5345 5345 5346 5346 5347 5347 5347 5347 5347 5347
5370 5368 5367 5365 5364 5362 5361 5360 5359 5358 5356 5355 5354 5353 5352 5351 5350 5349 5348 5347 5346 5345 5344 5342 5341 5340 5338 5337 5336 5335 5334 5333 5333 5332 5332 5332 5332 5333 5333 5333 5333 5333 5333
5360 5358 5357 5355 5353 5352 5351 5349 5348 5346 5345 5344 5343 5342 5341 5340 5339 5338 5338 5336 5335 5334 5333 5332 5330 5328 5327 5326 5324 5323 5322 5322 5321 5320 5320 5320 5320 5319 5319 5319 5319 5319 5318
5351 5349 5347 5345 5344 5342 5340 5339 5337 5336 5335 5334 5333 5332 5330 5329 5329 5328 5327 5326 5325 5323 5322 5321 5319 5318 5316 5315 5314 5313 5312 5311 5310 5309 5308 5308 5307 5307 5306 5306 5305 5305 5305
5341 5339 5337 5336 5334 5332 5330 5328 5327 5326 5325 5323 5322 5321 5320 5319 5318 5317 5316 5315 5314 5313 5312 5311 5309 5308 5306 5305 5303 5302 5301 5300 5299 5298 5297 5296 5296 5295 5294 5294 5293 5292 5292
5333 5331 5328 5326 5324 5322 5320 5318 5317 5316 5314 5313 5312 5311 5310 5309 5308 5306 5305 5304 5304 5303 5302 5300 5299 5298 5296 5295 5293 5292 5291 5290 5289 5288 5287 5286 5285 5284 5283 5282 5282 5281 5280
5324 5322 5319 5317 5315 5312 5311 5309 5307 5306 5305 5303 5302 5301 5300 5299 5298 5297 5296 5294 5293 5292 5291 5290 5289 5288 5286 5285 5284 5283 5282 5281 5279 5278 5277 5276 5275 5274 5273 5272 5271 5270 5269
5316 5313 5311 5308 5306 5304 5302 5300 5298 5297 5296 5294 5293 5292 5291 5289 5288 5287 5286 5285 5284 5283 5282 5281 5279 5278 5277 5276 5275 5274 5273 5272 5270 5269 5268 5267 5266 5265 5263 5262 5261 5260 5259